Location: *
(58.7167°N, 26.1833°E)
Time: 08:58:34
(UTC+00:00)

Cosmos 2154 Rocket - Pass Details

Date: 25 August 2019
Orbit: 965 x 997 km, 82.9° (Epoch: 19 September)

Event Time Altitude Azimuth Distance (km) Brightness Sun altitude
Rises 20:07:16 0° 346° (NNW) 3,704 8.4 -15.8°
Reaches altitude 10° 20:09:48 10° 346° (NNW) 2,747 7.5 -16.0°
Maximum altitude 20:16:06 82° 260° (W) 992 4.0 -16.4°
Enters shadow 20:20:18 22° 175° (S) 1,976 5.1 -16.7°
